Location: Grambois
(43.7619°N, 5.5873°E)
Time: 01:18:10
(UTC+00:00)

Daily predictions for brighter satellites

Satellite Brightness Start Highest point End
(mag) Time Altitude Azimuth Time Altitude Azimuth Time Altitude Azimuth
STARLINK-1303 4.4 00:05:53 37° ENE 00:05:53 37° ENE 00:08:22 10° ENE
Cosmos 1570 Rocket 4.0 00:04:53 56° SSE 00:05:48 67° ESE 00:11:03 10° NNE
STARLINK-66 4.5 00:07:08 33° NE 00:07:08 33° NE 00:09:05 10° NE
Cosmos 1763 Rocket 3.4 00:05:58 57° SW 00:06:56 75° WNW 00:12:01 10° NNE
Cosmos 1709 Rocket 4.0 00:05:05 45° SSE 00:06:58 68° E 00:13:06 10° NNE
STARLINK-1312 4.2 00:09:13 42° ENE 00:09:13 42° ENE 00:11:52 10° ENE
Cosmos 2227 Rocket 2.5 00:03:58 10° NW 00:09:25 49° WSW 00:10:10 46° SW
Cosmos 2084 Rocket 4.0 00:09:00 10° NNW 00:13:26 60° NE 00:14:58 38° ESE
Cosmos 1356 Rocket 4.5 00:10:15 10° NNW 00:13:55 34° W 00:13:55 34° W
SL-16 R/B 4.0 00:10:23 10° ESE 00:15:37 31° ENE 00:20:57 10° N
Cosmos 1758 Rocket 3.5 00:15:28 67° SE 00:15:49 71° E 00:20:14 10° NNE
STARLINK-75 4.1 00:18:02 41° NE 00:18:02 41° NE 00:20:20 10° NE
STARLINK-1283 3.5 00:20:03 82° E 00:20:03 82° E 00:24:03 10° NE
STARLINK-1313 4.4 00:21:38 35° NE 00:21:38 35° NE 00:23:36 10° NE
STARLINK-80 3.6 00:21:07 65° ENE 00:21:07 65° ENE 00:24:24 10° NE
STARLINK-1279 4.3 00:22:32 35° NE 00:22:32 35° NE 00:24:31 10° NE
STARLINK-1298 4.4 00:23:16 33° NE 00:23:16 33° NE 00:25:09 10° NE
STARLINK-1293 4.4 00:24:09 34° NE 00:24:09 34° NE 00:26:05 10° NE
Nadezhda 1 Rocket 4.4 00:17:37 10° NNW 00:23:39 52° W 00:25:28 40° SW
CZ-4 R/B 3.9 00:19:21 10° N 00:24:02 64° WNW 00:24:50 54° WSW
SL-16 R/B 3.8 00:22:44 18° SE 00:24:31 21° E 00:28:39 10° NE
STARLINK-1255 4.3 00:25:54 36° NE 00:25:54 36° NE 00:27:54 10° NE
Cosmos 2208 Rocket 4.0 00:23:37 56° S 00:24:47 81° ESE 00:30:10 10° NNE
STARLINK-22 4.0 00:26:16 43° NE 00:26:16 43° NE 00:28:35 10° NE
STARLINK-1297 3.7 00:26:32 58° ENE 00:26:32 58° ENE 00:29:31 10° NE
STARLINK-1311 4.4 00:28:27 33° NE 00:28:27 33° NE 00:30:17 10° NE
Cosmos 2285 Rocket 3.9 00:23:07 10° NNW 00:29:30 83° WSW 00:31:55 41° S
USA 81 4.0 00:30:17 53° SSW 00:31:31 79° W 00:36:50 10° N
CZ-2D R/B 3.4 00:28:36 10° NE 00:33:06 29° E 00:35:02 23° SE
USA 215 3.1 00:28:07 15° SE 00:33:39 80° SW 00:40:14 10° NW
Cosmos-2242 2.8 00:29:39 10° N 00:33:55 84° E 00:34:23 70° SSE
Cosmos 1953 Rocket 3.7 00:33:32 53° SE 00:34:12 61° E 00:38:33 10° NNE
Meteor 2-10 Rocket 3.5 00:29:23 10° NNW 00:34:25 61° W 00:35:16 52° SW
Meteor 1-21 Rocket 4.5 00:34:27 42° SW 00:36:09 59° WNW 00:41:53 10° N
STARLINK-42 4.0 00:36:26 42° NNW 00:36:26 42° NNW 00:39:11 10° NE
BREEZE-M R/B 4.3 00:30:19 10° W 00:36:25 42° NNW 00:39:42 10° ENE
STARLINK-1029 4.2 00:39:04 35° ENE 00:39:04 35° ENE 00:41:04 10° ENE
STARLINK-34 4.0 00:40:01 40° NE 00:40:01 40° NE 00:42:08 10° NE
STARLINK-41 4.0 00:40:11 41° N 00:40:11 41° N 00:42:50 10° NE
GP-B 3.8 00:37:28 10° NNE 00:41:46 45° E 00:42:59 36° SE
STARLINK-1272 3.4 00:42:02 66° NNW 00:42:02 66° NNW 00:45:31 10° NE
Cosmos 540 Rocket 3.5 00:41:07 50° SW 00:42:26 73° WNW 00:47:34 10° NNE
STARLINK-62 3.9 00:43:45 43° NE 00:43:45 43° NE 00:45:58 10° NE
Cosmos 2360 Rocket 4.4 00:44:25 10° SE 00:46:59 13° E 00:49:33 10° ENE
STARLINK-1307 3.5 00:46:48 60° WNW 00:47:08 64° NNW 00:50:50 10° NE
Helios 1B rocket 3.4 00:45:59 10° N 00:49:44 34° WNW 00:50:24 32° W
STARLINK-1290 3.6 00:50:11 55° WNW 00:50:39 61° NNW 00:54:21 10° NE
STARLINK-1276 4.4 00:52:19 37° SE 00:52:19 37° SE 00:55:51 10° ENE
Cosmos 1980 Rocket 2.3 00:51:50 40° SW 00:53:49 69° WNW 00:59:29 10° NNE
Cosmos 2074 Rocket 4.3 00:51:22 32° SSE 00:54:20 63° E 01:00:32 10° NNE
STARLINK-1305 4.2 00:57:04 41° SE 00:57:04 41° SE 01:00:50 10° ENE
STARLINK-1306 4.1 00:57:24 44° SE 00:57:24 44° SE 01:01:23 10° ENE
STARLINK-1317 4.0 00:56:33 39° W 00:57:39 53° NNW 01:01:30 10° NE
Meteor 1-29 4.0 00:55:15 10° N 00:58:11 34° WNW 00:58:11 34° WNW
Cosmos 1328 4.2 00:59:35 46° W 00:59:55 47° WNW 01:03:48 10° N
Cosmos 1455 3.5 00:57:14 10° NNW 01:00:05 27° WNW 01:00:05 27° WNW
STARLINK-1274 4.0 01:00:56 39° WNW 01:01:42 47° NNW 01:05:09 10° NE
STARLINK-1262 4.0 01:01:53 45° SE 01:01:56 45° SE 01:05:53 10° ENE
STARLINK-1291 4.1 01:04:15 34° WNW 01:05:24 47° NNW 01:09:02 10° NE
Meteor 1-11 4.1 01:03:54 41° SSW 01:05:59 85° W 01:11:37 10° N
Cosmos 1703 4.1 01:05:53 35° W 01:06:14 36° WNW 01:09:53 10° N
STARLINK-1300 3.9 01:06:40 48° SSE 01:06:53 49° SE 01:10:53 10° ENE
Lacrosse 4 Rocket 3.4 01:05:38 10° WNW 01:07:19 16° W 01:07:19 16° W
STARLINK-1264 4.2 01:07:26 31° WNW 01:08:44 45° NNW 01:12:20 10° NE
Cosmos 1825 Rocket 4.4 01:08:39 34° W 01:09:25 36° WNW 01:13:28 10° N
ADEOS II 3.8 01:06:49 10° NE 01:11:08 25° E 01:14:40 13° SE
Cosmos 2263 Rocket 2.3 01:06:03 10° NNW 01:11:40 76° ENE 01:15:58 17° SSE
STARLINK-1295 3.8 01:11:26 51° SSE 01:11:50 54° SE 01:15:52 10° ENE
STARLINK-1267 4.3 01:10:39 28° WNW 01:12:06 43° NNW 01:15:41 10° NE
NOSS 2-1 (C) 3.2 01:12:05 54° SE 01:12:09 54° ESE 01:15:35 10° NE
Timation 1 Rocket 4.3 01:07:15 10° NNW 01:13:12 71° WSW 01:16:20 29° S
UNK 3.8 01:11:40 31° SSE 01:13:48 73° ENE 01:18:23 10° N
STARLINK-64 3.1 01:14:12 71° WSW 01:14:33 85° NNW 01:18:09 10° NE
Cosmos 2297 Rocket 4.2 01:13:01 10° WNW 01:14:46 12° W 01:14:46 12° W
SL-4 R/B 2.7 01:10:01 10° NW 01:14:51 67° NNE 01:19:31 10° ESE
AQUA 4.5 01:11:38 10° NNE 01:16:15 47° E 01:18:24 28° SSE
STARLINK-1287 3.7 01:16:13 52° S 01:16:47 59° SE 01:20:52 10° ENE
NOSS 2-1 (D) 2.9 01:16:50 61° SE 01:17:02 63° ESE 01:20:31 10° NE
USA 229 DEB 4.0 01:09:54 10° NW 01:17:13 78° NE 01:24:52 10° SE
USA 229 4.0 01:10:01 10° NW 01:17:19 78° NE 01:24:58 10° SE
NOSS 3-1 (C) 4.1 01:10:31 10° NW 01:18:08 85° NE 01:26:52 10° SE
Cosmos 372 Rocket 4.2 01:14:26 10° NNW 01:19:24 49° WSW 01:20:47 38° SSW
Cosmos 2184 Rocket 3.9 01:16:26 33° S 01:19:26 88° W 01:25:39 10° N
NPP 3.8 01:14:54 10° NNE 01:20:17 67° ESE 01:22:54 31° S
CZ-4C R/B 4.1 01:17:08 10° W 01:21:31 25° NNW 01:26:34 10° NNE
BREEZE-M DEB (TANK) 2.7 01:23:13 42° N 01:23:13 42° N 01:25:21 10° ENE
Cosmos 1892 4.0 01:21:53 23° SE 01:23:28 32° E 01:26:53 10° NNE
STARLINK-1299 3.6 01:24:06 47° SW 01:25:15 80° SE 01:29:31 10° ENE
NOSS 3-1 (A) 4.4 01:18:44 10° NNW 01:26:16 69° NE 01:34:53 10° SE
STARLINK-1302 3.6 01:25:46 49° SSW 01:26:43 70° SE 01:30:51 10° ENE
BREEZE-M DEB (TANK) 3.6 01:25:46 10° NW 01:27:51 23° N 01:29:55 10° ENE
Cosmos 1869 3.5 01:27:23 10° N 01:31:14 64° E 01:33:00 30° SSE
STARLINK-1273 3.5 01:30:32 46° SW 01:31:40 77° SE 01:35:50 10° ENE
Cosmos 2150 Rocket 4.2 01:27:03 10° NNW 01:32:03 51° WSW 01:33:54 34° SSW
Cosmos 2322 Rocket 2.4 01:29:42 29° S 01:32:30 62° ESE 01:38:03 10° NNE
STARLINK-1288 3.5 01:35:19 42° SW 01:36:38 83° SE 01:40:48 10° ENE
STARLINK-61 3.5 01:35:51 46° SSW 01:36:46 63° SE 01:40:39 10° ENE
STARLINK-1308 3.5 01:40:08 38° SW 01:41:40 89° WNW 01:45:50 10° NE
Cosmos 1076 Rocket 3.9 01:39:51 26° SSE 01:42:10 58° E 01:46:28 10° NNE
Resurs 1-4 Rocket 2.2 01:36:55 10° N 01:42:12 69° WNW 01:44:54 29° SSW
Cosmos 1400 Rocket 4.0 01:40:42 10° NNW 01:44:13 28° W 01:44:46 27° WSW
Cosmos 1125 Rocket 3.5 01:40:35 10° NNW 01:45:44 63° WSW 01:48:54 23° S
Meteor 2-17 Rocket 4.4 01:42:53 27° SSW 01:46:23 73° W 01:52:30 10° N
STARLINK-79 4.5 01:46:45 26° SSE 01:47:26 28° SE 01:50:36 10° ENE
STARLINK-52 4.1 01:45:30 10° NW 01:48:36 45° NNE 01:51:42 10° ESE
STARLINK-78 4.4 01:48:20 27° SSE 01:49:04 30° SE 01:52:16 10° ENE
STARLINK-57 4.3 01:49:58 29° SSE 01:50:45 32° SE 01:54:01 10° ENE
STARLINK-1304 3.6 01:49:41 31° WSW 01:51:37 78° NNW 01:55:46 10° NE
Cosmos 1408 3.6 01:49:31 20° SSE 01:51:40 41° E 01:55:09 10° NNE
STARLINK-49 4.3 01:51:26 28° SSE 01:52:16 31° SE 01:55:31 10° ENE
Cosmos 2154 Rocket 4.0 01:49:51 24° SSW 01:53:47 76° W 02:00:02 10° N
STARLINK-27 4.3 01:53:02 28° SSE 01:53:56 32° SE 01:57:13 10° ENE
STARLINK-74 4.3 01:54:35 28° SSE 01:55:32 33° SE 01:58:51 10° ENE
GEOS 3 Rocket 3.6 01:51:09 10° SE 01:56:19 87° NE 02:01:39 10° NW
STARLINK-39 4.2 01:56:10 29° S 01:57:10 35° SE 02:00:30 10° ENE
STARLINK-1278 4.0 01:55:21 24° WSW 01:57:48 64° NNW 02:02:03 10° NE
Cosmos 1825 3.6 01:55:27 13° SSE 01:58:16 33° E 02:01:41 10° NNE
STARLINK-31 4.1 01:57:45 29° S 01:58:49 36° SE 02:02:11 10° ENE
SL-16 R/B 2.9 01:55:29 23° SSW 01:59:00 46° W 02:04:57 10° NNW
STARLINK-1280 4.0 01:57:08 23° WSW 01:59:39 62° NNW 02:03:53 10° NE
STARLINK-69 3.9 01:59:20 31° S 02:00:27 41° SE 02:03:51 10° ENE
SL-08 R/B 4.0 01:56:29 10° SSE 02:00:57 52° ENE 02:05:26 10° N
Iridium 2 4.1 01:58:18 10° NNW 02:01:54 43° W 02:03:12 31° SW
STARLINK-21 4.0 02:00:55 29° S 02:02:05 39° SE 02:05:30 10° ENE
STARLINK-45 3.8 02:02:35 31° S 02:03:51 45° SE 02:07:19 10° ENE
Meteor 2-2 Rocket 4.4 01:58:07 10° NNW 02:04:06 65° W 02:08:42 17° S
IRS-P3 4.3 02:00:22 10° NNE 02:05:42 69° ESE 02:09:51 17° S
Cosmos 1844 Rocket 3.8 02:00:44 10° NNW 02:06:08 46° ENE 02:11:28 10° SE
NOSS 2-1 (E) 3.8 02:04:58 25° WSW 02:06:31 42° NW 02:10:02 10° NNE
STARLINK-76 3.9 02:05:36 29° S 02:06:57 44° SE 02:10:25 10° ENE
STARLINK-70 3.8 02:05:59 30° SSW 02:07:24 47° SE 02:10:57 10° ENE
SL-16 R/B 2.5 02:04:36 23° SW 02:08:06 59° WNW 02:13:44 10° NNE
STARLINK-1286 4.0 02:05:37 21° WSW 02:08:18 59° NNW 02:12:26 10° NE
STARLINK-23 3.8 02:07:11 29° SSW 02:08:35 45° SE 02:12:04 10° ENE
STARLINK-32 3.7 02:08:37 29° SSW 02:10:02 46° SE 02:13:29 10° ENE
IRIDIUM 104 4.3 02:07:38 20° SSW 02:11:15 73° W 02:16:29 10° N
STARLINK-1281 4.0 02:08:48 20° WSW 02:11:32 58° NNW 02:15:39 10° NE
STARLINK-40 3.7 02:10:18 28° SSW 02:11:49 48° SE 02:15:20 10° ENE
CZ-2D R/B 2.9 02:08:26 10° N 02:13:13 38° WNW 02:16:21 19° WSW
STARLINK-44 3.7 02:11:49 28° SSW 02:13:24 50° SE 02:16:55 10° ENE
STARLINK-1051 4.4 02:11:51 23° S 02:13:56 39° SE 02:17:49 10° ENE
Cosmos 2221 3.2 02:10:11 10° NNW 02:14:12 37° W 02:16:17 23° SW
Cosmos 773 Rocket 4.4 02:11:02 16° S 02:15:06 61° ESE 02:20:20 10° NNE
STARLINK-37 3.5 02:13:33 28° SSW 02:15:13 56° SE 02:18:47 10° ENE
STARLINK-60 3.3 02:13:30 10° WNW 02:16:31 40° SW 02:19:32 10° SSE
STARLINK-1310 4.1 02:13:35 17° WSW 02:16:32 54° NNW 02:20:38 10° NE
STARLINK-36 3.6 02:14:56 27° SSW 02:16:38 54° SE 02:20:11 10° ENE
USA 215 4.3 02:15:22 19° SSW 02:17:17 22° WSW 02:22:08 10° WNW
FALCON 9 DEB 4.0 02:14:33 10° NW 02:17:57 53° NNE 02:21:20 10° ESE
Nadezhda 3 Rocket 4.3 02:13:34 10° NNW 02:19:39 50° W 02:24:39 15° SSW
Cosmos 1315 Rocket 3.8 02:16:29 10° NNW 02:19:55 29° W 02:21:25 22° SW
STARLINK-63 3.4 02:18:10 26° SSW 02:20:00 61° SE 02:23:34 10° ENE
BREEZE-M DEB (TANK)4.402:22:48SSE02:22:48SSE02:16:36WNW
IRIDIUM 114 4.5 02:16:46 19° SSW 02:20:24 60° W 02:25:35 10° N
STARLINK-35 3.4 02:19:32 26° SSW 02:21:21 59° SE 02:24:53 10° ENE
STARLINK-1319 4.3 02:18:21 16° W 02:21:31 51° NNW 02:25:35 10° NE
CBERS-1 4.2 02:17:54 10° N 02:22:57 59° WNW 02:26:39 18° SSW
STARLINK-51 3.4 02:21:14 25° SW 02:23:09 62° SE 02:26:44 10° ENE
STARLINK-1028 4.1 02:21:25 21° SSW 02:23:50 47° SE 02:27:50 10° ENE
Cosmos 2366 rocket 4.4 02:18:10 10° S 02:24:17 63° E 02:30:31 10° NNE
STARLINK-30 3.4 02:22:49 24° SW 02:24:49 64° SE 02:28:25 10° ENE
STARLINK-72 3.3 02:24:13 24° SW 02:26:13 66° SE 02:29:46 10° ENE
STARLINK-1277 4.4 02:23:08 14° W 02:26:31 48° NNW 02:30:33 10° NE
Shenzhou-11 Module 1.3 02:26:47 26° W 02:27:56 69° S 02:30:22 10° E
STARLINK-1021 4.0 02:26:14 20° SSW 02:28:49 52° SE 02:32:52 10° ENE
Cosmos 2058 3.7 02:27:00 20° SW 02:29:25 38° WNW 02:33:22 10° N
STARLINK-59 3.2 02:27:25 22° SW 02:29:33 75° SE 02:33:07 10° ENE
Cosmos 2360 Rocket 2.2 02:25:44 17° SSW 02:30:07 87° WNW 02:35:49 10° NNE
STARLINK-1010 3.9 02:28:17 20° SSW 02:31:03 58° SE 02:35:14 10° ENE
STARLINK-56 3.3 02:29:04 22° SW 02:31:18 74° SE 02:34:57 10° ENE
STARLINK-1276 4.5 02:27:56 12° W 02:31:32 45° NNW 02:35:33 10° NE
STARLINK-73 3.2 02:30:38 21° SW 02:32:56 76° SE 02:36:34 10° ENE
STARLINK-1019 3.9 02:30:59 19° SSW 02:33:45 57° SE 02:37:50 10° ENE
STARLINK-38 3.2 02:32:12 20° SW 02:34:34 79° SE 02:38:12 10° ENE
STARLINK-65 3.2 02:33:46 20° SW 02:36:12 81° SE 02:39:51 10° ENE
STARLINK-68 3.2 02:34:23 19° SW 02:36:54 88° SE 02:40:34 10° NE
STARLINK-53 3.2 02:35:24 19° SW 02:37:55 88° SSE 02:41:34 10° NE
STARLINK-1012 3.8 02:35:47 18° SW 02:38:44 62° SE 02:42:50 10° ENE
Cosmos 1980 Rocket 4.4 02:36:08 10° WNW 02:38:56 14° NW 02:41:45 10° NNW
STARLINK-50 3.3 02:37:26 18° SW 02:40:11 83° SE 02:44:00 10° ENE
SL-24 DEB 4.2 02:38:18 10° N 02:42:56 84° W 02:47:32 10° S
Cosmos 2333 Rocket 3.0 02:38:20 10° S 02:43:41 47° ESE 02:49:06 10° NE
STARLINK-71 3.5 02:41:45 16° SW 02:44:56 88° NW 02:48:59 10° NE
Meteor 1-28 Rocket 3.1 02:41:41 10° S 02:45:26 77° WSW 02:49:10 10° NNW
Landsat 5 4.3 02:42:19 10° SSE 02:46:45 58° ENE 02:51:07 10° N
Cosmos 2219 Rocket 3.0 02:42:30 10° S 02:47:48 47° ESE 02:53:08 10° NE
STARLINK-1026 3.7 02:45:20 15° SW 02:48:40 74° SE 02:52:48 10° ENE
Cosmos 2322 3.9 02:43:31 10° SSW 02:49:08 74° ESE 02:54:52 10° NNE
STARLINK-29 3.2 02:46:19 10° WNW 02:49:23 42° SW 02:52:23 10° SSE
Cosmos 1727 Rocket 4.3 02:44:06 10° N 02:50:16 71° E 02:56:26 10° SSE
ADEOS II 2.7 02:46:01 10° N 02:50:59 44° WNW 02:55:36 12° SW
Cosmos 864 Rocket 4.5 02:45:49 10° S 02:51:57 84° W 02:58:09 10° N
STARLINK-1013 3.6 02:50:08 14° SW 02:53:39 81° SE 02:57:48 10° ENE
SL-4 R/B 3.1 02:50:11 10° WNW 02:54:20 30° SW 02:58:18 10° SSE
IDEFIX/ARIANE 42P 2.9 02:49:23 10° NNE 02:54:39 69° ESE 02:59:52 10° S
Cosmos 2263 Rocket 3.8 02:51:41 10° WNW 02:54:52 16° W 02:57:35 11° SW
ERS-2 2.1 02:51:24 10° S 02:55:02 68° WSW 02:58:43 10° NNW
Cosmos 1606 2.7 02:51:49 10° N 02:55:37 83° E 02:59:23 10° S
STARLINK-25 3.3 02:53:37 13° WSW 02:56:40 67° NNW 03:00:07 10° NE
STARLINK-1329 4.5 02:53:56 10° NW 02:57:54 52° NNE 03:01:51 10° ESE
ATLAS 5 CENTAUR R/B 3.6 02:55:10 10° SSE 02:58:11 20° ESE 03:01:24 10° ENE
Cosmos 2333 4.3 02:52:57 10° SSW 02:58:33 83° ESE 03:04:12 10° NNE
STARLINK-1009 3.6 02:54:54 13° SW 02:58:37 87° SE 03:02:47 10° NE
BREEZE-M R/B 3.0 02:56:26 10° WNW 02:59:38 47° NNE 03:02:00 10° E
ARIANE 5 R/B 2.7 02:55:19 10° N 03:00:14 57° WNW 03:05:06 10° SSW
STARLINK-1362 4.4 02:58:28 10° NW 03:02:27 56° NNE 03:06:26 10° ESE
STARLINK-1015 3.6 02:59:41 11° SW 03:03:35 87° NNW 03:07:45 10° NE
STARLINK-1320 3.2 03:00:38 10° NW 03:03:46 71° NE 03:06:52 10° ESE
STARLINK-1322 3.1 03:01:00 10° NW 03:04:07 72° NE 03:07:13 10° ESE
STARLINK-1324 3.1 03:01:18 10° NW 03:04:26 72° NE 03:07:32 10° ESE
STARLINK-1294 3.1 03:01:36 10° NW 03:04:45 73° NE 03:07:53 10° ESE
CZ-2C R/B 2.8 03:01:05 10° NNE 03:04:52 79° ESE 03:08:43 10° S
STARLINK-1261 3.1 03:02:00 10° NW 03:05:08 73° NE 03:08:14 10° ESE
CZ-2D R/B 3.6 03:01:04 10° N 03:05:19 66° WNW 03:09:38 10° SSW
STARLINK-1325 3.1 03:02:21 10° NW 03:05:28 74° NNE 03:08:35 10° ESE
STARLINK-1333 3.1 03:02:43 10° NW 03:05:51 75° NE 03:08:57 10° ESE
Cosmos 1408 Rocket 3.6 03:01:39 10° S 03:05:57 79° E 03:10:15 10° N
STARLINK-1334 3.1 03:03:00 10° NW 03:06:07 75° NNE 03:09:14 10° ESE
STARLINK-1326 3.1 03:03:19 10° NW 03:06:27 76° NE 03:09:33 10° ESE
STARLINK-1323 3.1 03:03:42 10° NW 03:06:50 76° NNE 03:09:57 10° ESE
STARLINK-1373 4.2 03:02:56 10° NW 03:06:55 59° NNE 03:10:54 10° ESE
STARLINK-1349 3.0 03:04:00 10° NW 03:07:08 77° NE 03:10:14 10° ESE
STARLINK-1336 3.0 03:04:20 10° NW 03:07:27 77° NE 03:10:34 10° ESE
STARLINK-1331 3.0 03:04:42 10° NW 03:07:50 78° NNE 03:10:56 10° ESE
STARLINK-24 3.9 03:04:06 10° WSW 03:08:03 60° NNW 03:12:03 10° NE
STARLINK-1344 3.0 03:05:01 10° NW 03:08:08 78° NNE 03:11:15 10° ESE
STARLINK-1343 3.0 03:05:23 10° NW 03:08:31 79° NE 03:11:38 10° ESE
STARLINK-1016 3.7 03:04:27 10° WSW 03:08:34 80° NNW 03:12:43 10° NE
STARLINK-1346 3.0 03:05:40 10° NW 03:08:49 79° NNE 03:11:58 10° ESE
STARLINK-1328 3.0 03:06:07 10° NW 03:09:14 80° NNE 03:12:21 10° ESE
STARLINK-1354 3.0 03:06:24 10° NW 03:09:32 80° NE 03:12:38 10° ESE
STARLINK-1347 3.0 03:06:41 10° NW 03:09:48 81° NNE 03:12:55 10° ESE
Cosmos 1844 3.7 03:04:09 10° NNW 03:09:57 72° WSW 03:15:41 10° SSE
STARLINK-1357 3.0 03:07:07 10° NW 03:10:15 82° NNE 03:13:22 10° ESE
STARLINK-1335 2.9 03:07:24 10° NW 03:10:32 82° NE 03:13:39 10° ESE
STARLINK-1327 2.9 03:07:45 10° NW 03:10:52 83° NNE 03:14:00 10° ESE
STARLINK-1340 2.9 03:08:03 10° NW 03:11:10 83° NE 03:14:17 10° ESE
STARLINK-1356 2.9 03:08:26 10° NW 03:11:34 84° NE 03:14:40 10° ESE
STARLINK-1390 4.1 03:07:35 10° NW 03:11:37 64° NNE 03:15:38 10° ESE
STARLINK-1345 2.9 03:08:44 10° NW 03:11:52 84° NE 03:14:59 10° SE
STARLINK-1355 2.9 03:09:06 10° NW 03:12:13 85° NNE 03:15:20 10° SE
STARLINK-1321 2.9 03:09:27 10° NW 03:12:34 86° NNE 03:15:42 10° SE
STARLINK-1358 2.9 03:09:50 10° NW 03:12:57 86° NNE 03:16:04 10° SE
STARLINK-1332 2.9 03:10:07 10° NW 03:13:15 87° NE 03:16:21 10° SE
STARLINK-1008 3.7 03:09:26 10° WSW 03:13:34 74° NNW 03:17:43 10° NE
STARLINK-1348 2.9 03:10:27 10° NW 03:13:36 87° NE 03:16:42 10° SE
STARLINK-1330 2.9 03:10:47 10° NW 03:13:55 88° NE 03:17:01 10° SE
STARLINK-1363 2.9 03:11:07 10° NW 03:14:15 89° NE 03:17:22 10° SE
STARLINK-1337 2.8 03:11:30 10° NW 03:14:37 89° NNE 03:17:44 10° SE
STARLINK-1342 2.8 03:11:49 10° NW 03:14:56 90° N 03:18:03 10° SE
STARLINK-1364 2.8 03:12:09 10° NW 03:15:16 89° W 03:18:24 10° SE
STARLINK-1376 2.8 03:12:29 10° NW 03:15:36 89° SW 03:18:43 10° SE
STARLINK-1360 2.8 03:12:49 10° NW 03:15:57 88° SSW 03:19:04 10° SE
Cosmos 1633 3.6 03:12:50 10° SSE 03:16:16 45° E 03:19:46 10° NNE
STARLINK-1361 2.8 03:13:10 10° NW 03:16:17 88° SW 03:19:24 10° SE
STARLINK-1367 2.8 03:13:25 10° NW 03:16:36 87° SW 03:19:45 10° SE
STARLINK-81 3.8 03:13:12 10° WSW 03:16:45 52° NNW 03:20:19 10° NE
CZ-4B R/B 3.2 03:14:03 10° SE 03:16:52 33° ENE 03:19:45 10° N
STARLINK-1366 2.8 03:13:49 10° NW 03:16:56 87° SW 03:20:03 10° SE
Cosmos 2322 Rocket 3.7 03:12:35 10° WSW 03:17:00 23° NW 03:21:25 10° N
STARLINK-1365 3.9 03:13:34 10° NW 03:17:38 71° NNE 03:21:42 10° ESE
Meteor 2-3 Rocket 3.8 03:12:14 10° S 03:17:49 85° E 03:23:26 10° NNE
Cosmos 1151 Rocket 3.1 03:13:44 10° NNW 03:18:05 60° W 03:22:23 10° S
STARLINK-54 4.0 03:15:03 10° WSW 03:18:31 46° NNW 03:22:02 10° NE
STARLINK-1014 3.8 03:14:27 10° WSW 03:18:33 69° NNW 03:22:39 10° NE
Cosmos 1461 3.7 03:14:56 10° NNW 03:19:36 68° NE 03:24:19 10° SE
Cosmos 2344 4.1 03:12:29 10° SSW 03:19:50 56° ESE 03:27:25 10° NE
STARLINK-77 3.9 03:16:29 10° WSW 03:20:01 49° NNW 03:23:34 10° NE
Resurs 1-4 Rocket 4.3 03:20:01 10° NW 03:21:02 11° NW 03:22:03 10° WNW
Cosmos 2151 4.2 03:17:35 10° SW 03:21:16 28° WNW 03:24:59 10° NNW
Cosmos 923 Rocket 4.3 03:16:14 10° S 03:21:21 68° ESE 03:26:33 10° NNE
deb Chang Zheng 4 4.3 03:17:16 10° NNE 03:21:29 54° E 03:25:38 10° S
H-2A R/B 2.5 03:18:05 10° S 03:22:20 46° W 03:26:41 10° NNW
Lacrosse 5 rocket 2.0 03:18:29 10° SSW 03:22:22 45° SE 03:26:03 10° ENE
Cosmos 2218 Rocket 4.5 03:16:22 10° SSW 03:22:27 46° WNW 03:28:37 10° N
STARLINK-1025 3.9 03:19:26 10° WSW 03:23:32 64° NNW 03:27:40 10° NE
Cosmos 1766 Rocket 4.2 03:19:51 10° SW 03:23:54 38° WNW 03:27:58 10° N
STARLINK-52 4.1 03:21:58 10° W 03:24:33 23° SW 03:27:08 10° S
STARLINK-79 4.1 03:21:26 10° WSW 03:24:55 45° NNW 03:28:26 10° NE
